Location: Unspecified
(0.0000°N, 0.0000°E)
Time: 16:10:26
(UTC+00:00)

ISS - Pass Details

Date: 18 September 2020
Orbit: 419 x 420 km, 51.6° (Epoch: 19 September)

Event Time Altitude Azimuth Distance (km) Brightness Sun altitude
Exits shadow 04:40:55 42° 327° (NNW) 608 -3.2 -18.3°
Maximum altitude 04:41:56 88° 47° (NE) 421 -3.9 -18.0°
Drops below altitude 10° 04:45:18 10° 144° (SE) 1,495 -0.5 -17.2°
Sets 04:47:24 0° 144° (SE) 2,361 0.6 -16.7°
